Regional Weather Roundup
Issued by NWS

Home | Current Version | Previous Version | Graphics & Text | Print | Product List | Glossary On
Versions: 1 2 3 4 5 6 7 8 9 10 11 12 13 14 15 16 17 18 19 20 21 22 23 24 25 26 27 28 29 30 31 32 33 34 35 36 37 38 39 40 41 42 43 44 45 46 47 48 49 50
000
ASUS43 KFSD 281802
RWRSD

WEATHER ROUNDUP FOR SOUTH DAKOTA
NATIONAL WEATHER SERVICE SIOUX FALLS SD
100 PM CDT FRI AUG 28 2015

NOTE: "FAIR" INDICATES FEW OR NO CLOUDS BELOW 12,000 FEET WITH NO
SIGNIFICANT WEATHER AND/OR OBSTRUCTIONS TO VISIBILITY.


SDZ001>005-009-010-012>017-281900-
NORTHWEST AND NORTH CENTRAL SOUTH DAKOTA

CITY           SKY/WX    TMP DP  RH WIND       PRES   REMARKS
BUFFALO          N/A     82  50  32 W9        29.95F
FAITH            N/A     78  61  55 S9        29.99S
MOBRIDGE       SUNNY     79  70  74 S8        29.94S
$$

SDZ012>016-024>037-041>051-057-063-072>074-281900-
SOUTHWEST AND SOUTH CENTRAL SOUTH DAKOTA

CITY           SKY/WX    TMP DP  RH WIND       PRES   REMARKS
RAPID CTY ARPT SUNNY     82  53  36 N10       30.05F
PIERRE         CLOUDY    75  65  70 CALM      29.97S
CUSTER         SUNNY     79  43  27 VRB5      30.22R
ELLSWORTH AFB  SUNNY     83  50  31 NW12      30.05S
PHILIP         SUNNY     74  67  78 W3        30.01S
PINE RIDGE     SUNNY     80  54  40 NW6       30.07F
WINNER         CLOUDY    72  65  78 NE8       30.01S
$$

SDZ004>011-016>023-039-040-281900-
NORTHEAST SOUTH DAKOTA

CITY           SKY/WX    TMP DP  RH WIND       PRES   REMARKS
ABERDEEN       PTSUNNY   75  66  73 SW5       29.98R
WATERTOWN      SUNNY     75  63  66 SE8       29.98F
BROOKINGS      CLOUDY    73  63  68 E12       29.99S
$$

SDZ017-020-022-023-036>040-048>070-281900-
SOUTHEAST SOUTH DAKOTA

CITY           SKY/WX    TMP DP  RH WIND       PRES   REMARKS
SIOUX FALLS    CLOUDY    70  63  78 E20G25    29.94S
HURON          MOSUNNY   75  65  70 CALM      29.97R
CHAMBERLAIN    CLOUDY    71  65  80 CALM      29.99S
MITCHELL       PTSUNNY   74  65  73 NE8       29.97R
YANKTON        CLOUDY    70  64  83 NE15      29.90F
$$

ABBREVIATIONS USED IN REMARKS
   TC - TEMPERATURE IN CELSIUS
  WCI - WIND CHILL INDEX
   HX - HEAT INDEX
  VSB - VISIBILITY




USA.gov is the U.S. government's official web portal to all federal, state and local government web resources and services.